Regional Weather Roundup
Issued by NWS

Home | Current Version | Previous Version | Graphics & Text | Print | Product List | Glossary On
Versions: 1 2 3 4 5 6 7 8 9 10 11 12 13 14 15 16 17 18 19 20 21 22 23 24 25 26 27 28 29 30 31 32 33 34 35 36 37 38 39 40 41 42 43 44 45 46 47 48 49 50
000
ASUS43 KDTX 020810
RWRMI
MICHIGAN HOURLY REGIONAL WEATHER ROUNDUP
NATIONAL WEATHER SERVICE DETROIT/PONTIAC MI
400 AM EDT THU JUL 02 2015

NOTE: "FAIR" INDICATES FEW OR NO CLOUDS BELOW 12,000 FEET WITH NO
SIGNIFICANT WEATHER AND/OR OBSTRUCTION TO VISIBILITY.

MIZ047>049-052>055-059>063-066>070-074>076-081>083-020900-
SOUTHEAST LOWER MICHIGAN

CITY           SKY/WX    TMP DP  RH WIND       PRES   REMARKS
ADRIAN         PTCLDY    56  53  90 NE5       29.97S
ALMA           CLEAR     54  52  94 N5        29.99F
ANN ARBOR      MOCLDY    56  54  93 NE5       29.97R
BAD AXE        CLEAR     53  50  90 CALM      29.98S
CARO           PTCLDY    53  52  99 CALM      29.98S FOG
DETROIT CITY   CLOUDY    61  57  87 N5        29.97S
DETROIT        CLOUDY    62  57  83 NE3       29.98R
FLINT          CLOUDY    60  57  89 NE3       29.98S FOG
GROSSE ILE     CLOUDY    61  57  88 NE3       29.96R
HILLSDALE      CLEAR     54  54 100 CALM      29.97F FOG
HOWELL         CLOUDY    54  54  99 CALM      29.99R FOG

CITY           SKY/WX    TMP DP  RH WIND       PRES   REMARKS
JACKSON        CLEAR     53  52  96 CALM      29.98R
LAMBERTVILLE   PTCLDY    62  57  85 NE3       29.96S
LANSING        MOCLDY    54  52  93 CALM      29.99R
LAPEER         FAIR      53  52  94 CALM      29.98S
MASON          MOCLDY    53  52  97 CALM      29.99R
MONROE         PTCLDY    58  57  97 CALM      29.96R FOG
MT. CLEMENS    CLOUDY    59  57  91 N5        29.95S
PONTIAC        CLOUDY    58  56  93 CALM      29.96S
PORT HOPE        N/A     57  53  86 VRB3      29.97S
PORT HURON     MOCLDY    54  54 100 CALM      29.97S
TRI CITIES     CLOUDY    59  53  80 N8        29.99F
MIDLAND        CLOUDY    55  54  94 N3        29.99F
TROY           CLOUDY    61  57  88 CALM      29.99R
SAGINAW HB     PTCLDY    55  55 100 N3        29.98S
$$
MIZ043>046-050>051-056>058-064>065-071>073-077>080-020900-
SOUTHWEST LOWER MICHIGAN

CITY           SKY/WX    TMP DP  RH WIND       PRES   REMARKS
BATTLE CREEK   CLEAR     55  52  89 NE6       29.98S
BENTON HARBOR  PTCLDY    49  48  97 CALM      29.98S FOG
BIG RAPIDS     CLEAR     49  46  87 CALM      30.00S
COLDWATER      CLEAR     53  52  99 CALM      29.97S FOG
FREMONT        FAIR      51  50  95 N3        30.00S
HOLLAND        CLEAR     54  51  90 CALM      30.00R
GRAND RAPIDS   CLEAR     54  52  93 CALM      29.99S
IONIA          FAIR      54  52  95 N5        29.98S
KALAMAZOO      CLEAR     54  51  90 N5        29.98S
LUDINGTON      CLEAR     51  48  92 N3        30.03R
MARSHALL       CLEAR     54  53  96 CALM      29.98R
MOUNT PLEASANT CLEAR     52  50  92 NW3       29.99F
MUSKEGON       CLEAR     54  51  90 N6        30.00S
SOUTH HAVEN    CLEAR     50  49  95 NE3       29.98S
$$
MIZ016>042-020900-
NORTHERN LOWER MICHIGAN

CITY           SKY/WX    TMP DP  RH WIND       PRES   REMARKS
ALPENA         CLEAR     48  45  89 CALM      30.01S
BEAVER ISLAND  CLEAR     41  40  97 CALM      30.04F
BELLAIRE       CLEAR     42  41  96 CALM      30.04R
CADILLAC       CLEAR     40  38  95 CALM      30.02S FOG
CHARLEVOIX     CLEAR     52  47  83 CALM      30.06S
FRANKFORT      CLEAR     44  38  81 CALM      30.03S
GAYLORD        CLEAR     43  42  97 CALM      30.02S
GRAYLING       FOG       41  41 100 CALM      30.03S VSB 1
HARBOR SPRINGS CLEAR     45  43  93 CALM      30.03S
HOUGHTON LAKE  CLEAR     49  46  90 N8        30.02S
MANISTEE       MOCLDY   N/A N/A N/A CALM      30.03S VSB 1/2
OSCODA         PTCLDY    50  49  95 CALM      29.99S
PELLSTON       CLEAR     43  41  93 NW3       30.04R
ROGERS CITY    CLEAR     48  46  93 W5        30.02S
TRAVERSE CITY  CLEAR     46  43  89 CALM      30.02S
$$
MIZ007>008-015-020900-
EASTERN UPPER MICHIGAN

CITY           SKY/WX    TMP DP  RH WIND       PRES   REMARKS
KINROSS        CLEAR     46  43  87 NW6       30.02S
MACKINAC ISLAN CLEAR     48  45  88 N7        30.02S
NEWBERRY       CLEAR     44  40  86 NW5       30.03F
S. S. MARIE    CLEAR     45  42  89 W3        30.02S
MUNISING         N/A     45  41  86 S9        30.02F
$$
MIZ004>006-011>014-085-020900-
CENTRAL UPPER MICHIGAN

CITY           SKY/WX    TMP DP  RH WIND       PRES   REMARKS
MANISTIQUE     CLEAR     41  39  93 CALM      30.03F
ESCANABA       CLEAR     43  39  87 W5        30.03S
MENOMINEE      CLEAR     46  41  81 CALM      30.03F
SAWYER-GWINN   CLOUDY    48  43  82 CALM      30.03F
$$
MIZ001>003-009>011-084-020900-
WESTERN UPPER MICHIGAN

CITY           SKY/WX    TMP DP  RH WIND       PRES   REMARKS
IRON MOUNTAIN  CLEAR     45  43  93 CALM      30.03F
HOUGHTON       MOCLDY    49  43  80 NW5       30.01S
COPPER HARBOR    N/A     56  47  71 SW3       30.00F
IRONWOOD       CLEAR     45  45 100 CALM      30.00F
$$

ABBREVIATIONS USED IN REMARKS
   TC - TEMPERATURE IN CELSIUS
  WCI - WIND CHILL INDEX
   HX - HEAT INDEX
  VSB - VISIBILITY




USA.gov is the U.S. government's official web portal to all federal, state and local government web resources and services.